Pope Field Airport, NC

2:43 AM EDT on August 22, 2017 (GMT -0400)
Pope Field Airport

Weather History for KPOB - November, 2012

Change the Weather History Date:

Saturday, November 17, 2012

  Actual Average Record
Temperature  
Mean Temperature 46 °F -  
Max Temperature 58 °F 60 °F 80 °F (1987)
Min Temperature 33 °F 40 °F 25 °F (2007)
Degree Days  
Heating Degree Days 20    
Moisture  
Dew Point 36 °F    
Average Humidity 71    
Maximum Humidity 96    
Minimum Humidity 50    
Precipitation  
Precipitation 0.00 in - - ()
Sea Level Pressure  
Sea Level Pressure 30.42 in    
Wind  
Wind Speed 6 mph (NE)    
Max Wind Speed 15 mph    
Max Gust Speed 20 mph    
Visibility 10 miles    
Events      
Averages and records for this station are not official NWS values.
T = Trace of Precipitation, MM = Missing Value Source: NWS Daily Summary

Daily Weather History Graph

Daily Weather History Graph

Search for Another Location

Airport or City:

Trip Planner

Search our weather history database for the weather conditions in past years. The results will help you decide how hot, cold, wet, or windy it might be!

Date:

Astronomy

Nov. 17, 2012 Rise Set
Actual Time 6:53 AM EST 5:08 PM EST
Civil Twilight 6:26 AM EST 5:35 PM EST
Nautical Twilight 5:55 AM EST 6:06 PM EST
Astronomical Twilight 5:25 AM EST 6:36 PM EST
Moon 10:36 AM EST (11/17) 9:15 PM EST (11/17)
Length of Visible Light 11h 09m
Length of Day
10h 15m
Waxing Crescent, 20% of the Moon is Illuminated
Nov 17
Waxing Crescent
Nov 20
First Quarter
Nov 28
Full
Dec 6
Last Quarter
Dec 13
New

Hourly Weather History & Observations

Time (EST) Temp. Windchill Dew Point Humidity Pressure Visibility Wind Dir Wind Speed Gust Speed Precip Events Conditions
12:55 AM 35.6 °F - 34.5 °F 96% 30.39 in 10.0 mi Calm Calm - N/A   Clear
1:55 AM 36.1 °F - 34.5 °F 94% 30.40 in 10.0 mi Calm Calm - N/A   Partly Cloudy
2:55 AM 35.2 °F - 33.3 °F 92% 30.39 in 10.0 mi Calm Calm - N/A   Clear
3:55 AM 33.8 °F - 32.2 °F 94% 30.40 in 10.0 mi Calm Calm - N/A   Clear
4:55 AM 36.7 °F 34.1 °F 32.5 °F 85% 30.41 in 10.0 mi ENE 3.5 mph - N/A   Clear
5:55 AM 34.5 °F 30.4 °F 31.5 °F 89% 30.41 in 10.0 mi NE 4.6 mph - N/A   Clear
6:55 AM 36.1 °F 32.3 °F 32.0 °F 85% 30.43 in 10.0 mi NNE 4.6 mph - N/A   Clear
7:50 AM 39.2 °F 33.6 °F 33.8 °F 81% 30.44 in 10.0 mi NE 8.1 mph - N/A   Clear
7:55 AM 39.2 °F 33.6 °F 34.0 °F 82% 30.44 in 10.0 mi NE 8.1 mph - 0.00 in   Clear
8:02 AM 39.2 °F 32.0 °F 33.8 °F 81% 30.44 in 10.0 mi NE 11.5 mph - N/A   Clear
8:55 AM 43.5 °F 36.4 °F 34.3 °F 70% 30.44 in 10.0 mi NNE 15.0 mph - 0.00 in   Clear
9:55 AM 47.3 °F - 35.1 °F 62% 30.46 in 10.0 mi NE 10.4 mph - N/A   Clear
10:55 AM 52.2 °F - 33.8 °F 50% 30.46 in 10.0 mi NE 11.5 mph 19.6 mph N/A   Clear
11:55 AM 54.5 °F - 36.9 °F 51% 30.43 in 10.0 mi NE 12.7 mph 18.4 mph N/A   Clear
12:55 PM 56.7 °F - 38.7 °F 51% 30.41 in 10.0 mi NE 12.7 mph - N/A   Clear
1:55 PM 58.3 °F - 39.9 °F 50% 30.40 in 10.0 mi NE 12.7 mph - N/A   Clear
2:55 PM 56.8 °F - 38.1 °F 50% 30.40 in 10.0 mi ENE 12.7 mph - N/A   Clear
3:55 PM 55.6 °F - 38.5 °F 53% 30.41 in 10.0 mi NE 13.8 mph - N/A   Clear
4:55 PM 53.6 °F - 40.1 °F 60% 30.42 in 10.0 mi ENE 6.9 mph - N/A   Clear
5:55 PM 50.2 °F - 40.1 °F 68% 30.44 in 10.0 mi NE 6.9 mph - N/A   Clear
6:55 PM 50.9 °F - 38.5 °F 62% 30.44 in 10.0 mi NE 11.5 mph - N/A   Clear
7:55 PM 49.8 °F - 36.9 °F 61% 30.44 in 10.0 mi NE 9.2 mph - N/A   Clear
8:55 PM 49.5 °F - 36.3 °F 61% 30.44 in 10.0 mi NE 11.5 mph - N/A   Clear
9:55 PM 48.7 °F - 38.1 °F 67% 30.43 in 10.0 mi NE 12.7 mph - N/A   Clear
10:55 PM 47.3 °F - 37.9 °F 70% 30.43 in 10.0 mi NE 12.7 mph - N/A   Clear
11:55 PM 46.4 °F 41.9 °F 38.3 °F 73% 30.43 in 10.0 mi NE 9.2 mph - N/A   Scattered Clouds